Location: Asheville, NC
(35.6000°N, 82.5500°W)
Time: 08:53:15
(UTC-05:00)

Vanguard 1 Rocket - Pass Details

Date: 17 February 2018
Orbit: 655 x 4222 km, 34.3° (Epoch: 19 February)

Event Time Altitude Azimuth Distance (km) Brightness Sun altitude
Exits shadow 04:32:06 45° 273° (W) 4,844 10.5 -33.6°
Maximum altitude 04:42:47 78° 199° (SSW) 3,591 10.1 -31.5°
Drops below altitude 10° 04:59:03 10° 116° (ESE) 4,979 11.9 -28.2°
Sets 05:02:01 0° 114° (ESE) 5,623 12.3 -27.6°
